Mosby, MO

4:00 PM CDT on August 22, 2017 (GMT -0500)
Clay County Regional

Weather History for KGPH - February, 2013

Change the Weather History Date:

Thursday, February 28, 2013

  Actual Average (KMKC) Record (KMKC)
Temperature  
Mean Temperature 30 °F -  
Max Temperature 33 °F 44 °F 75 °F (2006)
Min Temperature 28 °F 27 °F 15 °F (2001)
Degree Days  
Heating Degree Days 34    
Moisture  
Dew Point 26 °F    
Average Humidity 81    
Maximum Humidity 87    
Minimum Humidity 75    
Precipitation  
Precipitation 0.00 in - - ()
Sea Level Pressure  
Sea Level Pressure 30.14 in    
Wind  
Wind Speed 12 mph (NW)    
Max Wind Speed 18 mph    
Max Gust Speed 26 mph    
Visibility 10 miles    
Events      
Averages and records for this station are not official NWS values.
T = Trace of Precipitation, MM = Missing Value Source: NWS Daily Summary

Daily Weather History Graph

Daily Weather History Graph

Search for Another Location

Airport or City:

Trip Planner

Search our weather history database for the weather conditions in past years. The results will help you decide how hot, cold, wet, or windy it might be!

Date:

Astronomy

Feb. 28, 2013 Rise Set
Actual Time 6:51 AM CST 6:08 PM CST
Civil Twilight 6:24 AM CST 6:35 PM CST
Nautical Twilight 5:53 AM CST 7:06 PM CST
Astronomical Twilight 5:22 AM CST 7:38 PM CST
Moon 9:35 PM CST (2/28) 8:02 AM CST (2/28)
Length of Visible Light 12h 11m
Length of Day
11h 17m
Waning Gibbous, 90% of the Moon is Illuminated
Feb 28
Waning Gibbous
Mar 4
Last Quarter
Mar 11
New
Mar 19
First Quarter
Mar 27
Full

Hourly Weather History & Observations

Time (CST) Temp. Windchill Dew Point Humidity Pressure Visibility Wind Dir Wind Speed Gust Speed Precip Events Conditions
12:15 AM 32.0 °F 21.2 °F 26.6 °F 80% 30.03 in 10.0 mi NW 16.1 mph 19.6 mph N/A   Clear
12:35 AM 32.0 °F 21.2 °F 28.4 °F 87% 30.03 in 10.0 mi NW 16.1 mph 21.9 mph N/A   Scattered Clouds
1:15 AM 32.0 °F 22.1 °F 28.4 °F 87% 30.04 in 10.0 mi NW 13.8 mph 19.6 mph N/A   Mostly Cloudy
1:35 AM 32.0 °F 21.6 °F 28.4 °F 87% 30.04 in 10.0 mi NNW 15.0 mph 21.9 mph N/A   Scattered Clouds
1:55 AM 32.0 °F 23.0 °F 26.6 °F 80% 30.04 in 10.0 mi NW 11.5 mph - N/A   Mostly Cloudy
2:15 AM 32.0 °F 22.1 °F 26.6 °F 80% 30.04 in 10.0 mi NW 13.8 mph 18.4 mph N/A   Scattered Clouds
2:35 AM 32.0 °F 22.5 °F 26.6 °F 80% 30.04 in 10.0 mi NW 12.7 mph - N/A   Clear
2:55 AM 32.0 °F 22.5 °F 26.6 °F 80% 30.04 in 10.0 mi NW 12.7 mph - N/A   Clear
3:15 AM 32.0 °F 21.6 °F 26.6 °F 80% 30.04 in 10.0 mi NW 15.0 mph 20.7 mph N/A   Scattered Clouds
3:35 AM 30.2 °F 18.5 °F 24.8 °F 80% 30.05 in 10.0 mi NW 17.3 mph 21.9 mph N/A   Scattered Clouds
3:55 AM 30.2 °F 19.8 °F 24.8 °F 80% 30.05 in 10.0 mi NW 13.8 mph 18.4 mph N/A   Mostly Cloudy
4:15 AM 30.2 °F 20.2 °F 24.8 °F 80% 30.06 in 10.0 mi NW 12.7 mph 19.6 mph N/A   Overcast
4:35 AM 30.2 °F 19.3 °F 24.8 °F 80% 30.07 in 10.0 mi NW 15.0 mph 23.0 mph N/A   Overcast
5:15 AM 30.2 °F 20.8 °F 24.8 °F 80% 30.08 in 10.0 mi NW 11.5 mph 16.1 mph N/A   Overcast
5:35 AM 28.4 °F 17.5 °F 23.0 °F 80% 30.09 in 10.0 mi NNW 13.8 mph 26.5 mph N/A   Overcast
5:55 AM 28.4 °F 15.8 °F 23.0 °F 80% 30.10 in 10.0 mi NNW 18.4 mph 25.3 mph N/A   Overcast
6:15 AM 28.4 °F 17.5 °F 23.0 °F 80% 30.10 in 10.0 mi NNW 13.8 mph 20.7 mph N/A   Overcast
6:35 AM 28.4 °F 18.5 °F 24.8 °F 86% 30.10 in 10.0 mi NW 11.5 mph 19.6 mph N/A   Overcast
6:55 AM 28.4 °F 19.7 °F 24.8 °F 86% 30.12 in 10.0 mi NNW 9.2 mph - N/A   Overcast
7:15 AM 30.2 °F 20.2 °F 24.8 °F 80% 30.12 in 10.0 mi NW 12.7 mph 18.4 mph N/A   Unknown
7:35 AM 30.2 °F 20.2 °F 24.8 °F 80% 30.13 in 10.0 mi NW 12.7 mph - N/A   Overcast
7:55 AM 30.2 °F 20.8 °F 24.8 °F 80% 30.14 in 10.0 mi NW 11.5 mph 16.1 mph N/A   Overcast
8:15 AM 30.2 °F 21.9 °F 24.8 °F 80% 30.14 in 10.0 mi NW 9.2 mph 17.3 mph N/A   Overcast
8:35 AM 30.2 °F 21.3 °F 24.8 °F 80% 30.15 in 10.0 mi NNW 10.4 mph 16.1 mph N/A   Overcast
8:55 AM 30.2 °F 20.8 °F 24.8 °F 80% 30.15 in 10.0 mi NNW 11.5 mph 17.3 mph N/A   Overcast
9:15 AM 30.2 °F 21.3 °F 26.6 °F 86% 30.15 in 10.0 mi NW 10.4 mph - N/A   Overcast
9:35 AM 30.2 °F 20.2 °F 24.8 °F 80% 30.16 in 10.0 mi NW 12.7 mph - N/A   Overcast
9:55 AM 30.2 °F 20.8 °F 24.8 °F 80% 30.16 in 10.0 mi NNW 11.5 mph - N/A   Overcast
10:15 AM 32.0 °F 22.1 °F 24.8 °F 75% 30.16 in 10.0 mi NNW 13.8 mph 18.4 mph N/A   Overcast
10:35 AM 32.0 °F 22.5 °F 24.8 °F 75% 30.17 in 10.0 mi NW 12.7 mph 19.6 mph N/A   Overcast
10:55 AM 32.0 °F 23.6 °F 24.8 °F 75% 30.17 in 10.0 mi NW 10.4 mph - N/A   Overcast
11:15 AM 32.0 °F 21.2 °F 26.6 °F 80% 30.17 in 10.0 mi NW 16.1 mph - N/A   Overcast
11:35 AM 32.0 °F 22.1 °F 24.8 °F 75% 30.17 in 10.0 mi NW 13.8 mph 20.7 mph N/A   Overcast
11:55 AM 32.0 °F 22.1 °F 24.8 °F 75% 30.18 in 10.0 mi NW 13.8 mph 19.6 mph N/A   Overcast
12:35 PM 32.0 °F 24.2 °F 26.6 °F 80% 30.18 in 10.0 mi NW 9.2 mph 18.4 mph N/A   Overcast
12:55 PM 32.0 °F 23.0 °F 26.6 °F 80% 30.17 in 10.0 mi NW 11.5 mph - N/A   Overcast
1:15 PM 32.0 °F 22.5 °F 26.6 °F 80% 30.17 in 10.0 mi WNW 12.7 mph - N/A   Overcast
1:35 PM 32.0 °F 22.5 °F 26.6 °F 80% 30.17 in 10.0 mi NW 12.7 mph - N/A   Overcast
1:55 PM 32.0 °F 23.0 °F 26.6 °F 80% 30.17 in 10.0 mi NW 11.5 mph - N/A   Overcast
2:15 PM 32.0 °F 23.0 °F 24.8 °F 75% 30.17 in 10.0 mi NW 11.5 mph - N/A   Overcast
2:35 PM 32.0 °F 22.5 °F 24.8 °F 75% 30.17 in 10.0 mi NW 12.7 mph - N/A   Overcast
2:55 PM 32.0 °F 22.5 °F 26.6 °F 80% 30.17 in 10.0 mi NW 12.7 mph - N/A   Overcast
3:15 PM 33.8 °F 25.8 °F 26.6 °F 75% 30.17 in 10.0 mi NW 10.4 mph - N/A   Overcast
3:35 PM 33.8 °F 25.8 °F 26.6 °F 75% 30.17 in 10.0 mi NW 10.4 mph - N/A   Overcast
3:55 PM 32.0 °F 24.8 °F 26.6 °F 80% 30.17 in 10.0 mi NW 8.1 mph - N/A   Mostly Cloudy
4:15 PM 32.0 °F 24.2 °F 26.6 °F 80% 30.17 in 10.0 mi NW 9.2 mph - N/A   Unknown
4:35 PM 32.0 °F 24.2 °F 26.6 °F 80% 30.16 in 10.0 mi NW 9.2 mph - N/A   Mostly Cloudy
4:55 PM 32.0 °F 24.8 °F 26.6 °F 80% 30.17 in 10.0 mi NW 8.1 mph - N/A   Mostly Cloudy
5:15 PM 32.0 °F 24.2 °F 26.6 °F 80% 30.17 in 10.0 mi NW 9.2 mph - N/A   Overcast
5:35 PM 32.0 °F 24.8 °F 26.6 °F 80% 30.17 in 10.0 mi NW 8.1 mph - N/A   Overcast
5:55 PM 32.0 °F 24.8 °F 26.6 °F 80% 30.17 in 10.0 mi NW 8.1 mph - N/A   Overcast
6:15 PM 32.0 °F 25.6 °F 26.6 °F 80% 30.18 in 10.0 mi NW 6.9 mph - N/A   Overcast
6:35 PM 32.0 °F 26.4 °F 26.6 °F 80% 30.18 in 10.0 mi NW 5.8 mph - N/A   Overcast
6:55 PM 32.0 °F 27.5 °F 26.6 °F 80% 30.18 in 10.0 mi NW 4.6 mph - N/A   Overcast
7:15 PM 32.0 °F 28.7 °F 26.6 °F 80% 30.19 in 10.0 mi NW 3.5 mph - N/A   Overcast
7:35 PM 32.0 °F 28.7 °F 26.6 °F 80% 30.19 in 10.0 mi West 3.5 mph - N/A   Overcast
7:55 PM 32.0 °F 26.4 °F 28.4 °F 87% 30.19 in 10.0 mi WNW 5.8 mph - N/A   Overcast
8:15 PM 32.0 °F 26.4 °F 28.4 °F 87% 30.19 in 10.0 mi WNW 5.8 mph - N/A   Overcast
8:35 PM 32.0 °F 25.6 °F 26.6 °F 80% 30.19 in 10.0 mi WNW 6.9 mph - N/A   Overcast
8:55 PM 32.0 °F 26.4 °F 28.4 °F 87% 30.19 in 10.0 mi WNW 5.8 mph - N/A   Overcast
9:15 PM 32.0 °F 25.6 °F 26.6 °F 80% 30.19 in 10.0 mi WNW 6.9 mph - N/A   Overcast
9:35 PM 32.0 °F 27.5 °F 26.6 °F 80% 30.19 in 10.0 mi WNW 4.6 mph - N/A   Overcast
9:55 PM 32.0 °F 27.5 °F 26.6 °F 80% 30.20 in 10.0 mi WNW 4.6 mph - N/A   Overcast
10:15 PM 32.0 °F 27.5 °F 28.4 °F 87% 30.19 in 10.0 mi WNW 4.6 mph - N/A   Overcast
10:35 PM 32.0 °F 28.7 °F 28.4 °F 87% 30.19 in 10.0 mi WNW 3.5 mph - N/A   Overcast
10:55 PM 32.0 °F 27.5 °F 28.4 °F 87% 30.19 in 10.0 mi WNW 4.6 mph - N/A   Overcast
11:15 PM 32.0 °F 26.4 °F 26.6 °F 80% 30.19 in 10.0 mi NW 5.8 mph - N/A   Overcast
11:35 PM 32.0 °F 25.6 °F 26.6 °F 80% 30.18 in 10.0 mi NW 6.9 mph - N/A   Overcast
11:55 PM 32.0 °F 25.6 °F 26.6 °F 80% 30.18 in 10.0 mi NW 6.9 mph - N/A   Overcast